Flag for U.S.A. Weather past 2 weeks in Austin, Texas, U.S.A.

Now
52 °F

Clear.


Feels Like: 52 °F
Forecast: 47 / 61 °F
Wind: 3 mph from Northeast

Location: Camp Mabry / Austin City

Current Time: Jan 30, 2015 at 11:09:05 PM

Latest Report: Jan 30, 2015 at 9:51 PM


Visibility: 10 mi

Pressure: 30.30 "Hg

Humidity: 61%

Dew point: 39 °F

Location of AustinLocation

Historic Weather in Austin — Graph

°F

Austin temperature yesterday

Maximum temperature yesterday: 78 °F (at 2:51 PM)
Minimum temperature yesterday: 53 °F (at 4:51 AM)
Average temperature yesterday: 63 °F

Past Weeks' High & Low Weather Summary

 TemperatureHumidityPressure
High81 °F (Jan 27, 3:51 PM)100% (Jan 22, 1:56 AM)30.46 "Hg (Jan 22, 1:56 AM)
Low36 °F (Jan 24, 5:51 AM)20% (Jan 18, 1:51 PM)29.85 "Hg (Jan 20, 3:51 PM)
Average54 °F63%30.16 "Hg
* Reported Jan 15 9:51 PM — Jan 30 9:51 PM, Austin, Weather by CustomWeather, © 2014

Note: Actual official high and low records may vary slightly from our data, if they occured in-between our weather recording intervals... More about our weather records

Advertising

Austin weather history for previous 24 hours

 ConditionsComfort  
Time TempWeatherWind HumidityBarometerVisibility
9:51 PM
Jan 30
52 °FClear.3 mph61%30.30 "Hg10 mi
8:51 PM52 °FClear.No wind59%30.31 "Hg10 mi
7:51 PM53 °FClear.3 mph56%30.31 "Hg10 mi
6:51 PM53 °FClear.3 mph56%30.29 "Hg10 mi
5:51 PM55 °FSunny.5 mph51%30.30 "Hg10 mi
4:51 PM57 °FSunny.6 mph49%30.30 "Hg10 mi
3:51 PM58 °FSunny.5 mph50%30.31 "Hg10 mi
2:51 PM57 °FOvercast.5 mph51%30.33 "Hg10 mi
1:51 PM56 °FPassing clouds.6 mph51%30.35 "Hg10 mi
12:51 PM54 °FOvercast.3 mph53%30.39 "Hg10 mi
11:51 AM52 °FPartly sunny.6 mph55%30.44 "Hg10 mi
10:51 AM50 °FScattered clouds.6 mph57%30.45 "Hg10 mi
9:51 AM48 °FMore clouds than sun.5 mph59%30.46 "Hg10 mi
8:51 AM48 °FOvercast.8 mph56%30.46 "Hg10 mi
7:51 AM48 °FOvercast.6 mph56%30.44 "Hg10 mi
6:51 AM48 °FLight rain. Overcast.5 mph56%30.43 "Hg10 mi
5:51 AM49 °FOvercast.9 mph55%30.42 "Hg10 mi
4:51 AM50 °FOvercast.8 mph52%30.40 "Hg10 mi
3:51 AM51 °FOvercast.9 mph50%30.40 "Hg10 mi
2:51 AM53 °FOvercast.10 mph47%30.39 "Hg10 mi
1:51 AM54 °FMostly cloudy.9 mph47%30.39 "Hg10 mi
12:51 AM56 °FLight rain. Overcast.8 mph46%30.39 "Hg10 mi
11:51 PM
Jan 29
58 °FPassing clouds.10 mph41%30.39 "Hg10 mi
Weather by CustomWeather, © 2014

See weather overviewHow to use our weather pages